Starlink 33853

operational
NORAD ID: 63684 Int'l Des: 2025-085 Owner: SPXS Country: US Constellation: starlink
LEOCIRCULAR

Starlink 33853について

説明を読み込み中...

リアルタイム位置

3D地球を読み込み中...

次回通過

高度履歴

Altitude vs Time

uPlot chart will show altitude changes over time

軌道要素

1 63684U 25085W 25350.71368316 .00024527 00000-0 89689-3 0 9990
2 63684 42.9971 139.1842 0000626 263.7240 96.3541 15.27615074 36181
Epoch: Dec 16, 2025 • Age: 32 hours

現在のステータス

高度 482.4 km
速度 7.63 km/s
衛星直下点 20.60°N, 176.32°W
打ち上げ日 Apr 28, 2025
運用期間 0.6 years
タイプ internet

技術仕様

分類 Payload
質量 575.00 kg
乾燥質量 530.00 kg
総質量 575.00 kg
長さ 0.30 m
直径 4.10 m
スパン 29.00 m
形状 Box + pan
製造者 SPXS
バスタイプ Starlink V2MO
フェーズステータス In Orbit
所有者/国 SPXS/US

大規模コンステレーション

Loading constellations...